Location: Tierz
(42.1336°N, 0.3549°W)
Time: 10:42:44
(UTC+00:00)

ATLAS 2AS CENTAUR R/B - Pass Details

Date: 29 October 2020
Orbit: 939 x 1273 km, 63.7° (Epoch: 23 November)

Event Time Altitude Azimuth Distance (km) Brightness Sun altitude
Rises 20:05:15 0° 324° (NW) 4,118 6.4 -35.0°
Reaches altitude 10° 20:08:05 10° 324° (NW) 3,108 5.6 -35.5°
Enters shadow 20:13:44 55° 321° (NW) 1,333 3.2 -36.5°
